Weather Roundup
Issued by NWS Chicago, IL

Home | Current Version | Previous Version | Text Only | Print | Product List | Glossary On
Versions: 1 2 3 4 5 6 7 8 9 10 11 12 13 14 15 16 17 18 19 20 21 22 23 24 25 26 27 28 29 30 31 32 33 34 35 36 37 38 39 40 41 42 43 44 45 46 47 48 49 50
000
NZUS59 KLOT 050908
HRRLOT

CHICAGO AREA WEATHER ROUNDUP
NATIONAL WEATHER SERVICE CHICAGO/ROMEOVILLE IL
300 AM CST MON DEC 05 2016

NOTE: "FAIR" INDICATES FEW OR NO CLOUDS BELOW 12,000 FEET WITH NO
SIGNIFICANT WEATHER AND/OR OBSTRUCTIONS TO VISIBILITY.

* THESE STATIONS ARE NOT UNDER NWS QUALITY CONTROL. THEY ALSO MAY NOT
  REPORT WEATHER SUCH AS PRECIPITATION OR FOG.

ILZ005-006-012>014-019>023-051000-
NORTHEAST ILLINOIS

CITY           SKY/WX    TMP DP  RH WIND       PRES   REMARKS
OHARE          CLOUDY    33  30  88 W9        29.98R WCI  25
MIDWAY         CLOUDY    34  29  82 W12       30.00R WCI  25
AURORA         CLOUDY    34  31  88 W12       29.98S WCI  25
LANSING*       CLOUDY    33  32  96 W8        30.01R WCI  26
JOLIET*        CLOUDY    34  33  93 W6        30.01S WCI  29
WAUKEGAN       CLOUDY    33  30  88 W8        29.94R WCI  26
DUPAGE AIRPORT CLOUDY    33  29  85 W14       29.98R WCI  23
WHEELING       CLOUDY    33  30  88 W8        29.98R WCI  26
KANKAKEE*      CLOUDY    33  32  98 W9        30.03F WCI  25
MORRIS*        CLOUDY    33  31  92 W8        30.01R WCI  26
LEWIS AIRPORT* CLOUDY    33  33 100 W6        30.00S WCI  27
NORTHERLY ISL    N/A     34  30  86 W12         N/A  WCI  25
$$

WIZ051-052-058>065-066-070>072-051000-
SOUTHEAST WISCONSIN

CITY           SKY/WX    TMP DP  RH WIND       PRES   REMARKS
MILWAUKEE      CLOUDY    35  30  82 W10G20    29.92R WCI  27
KENOSHA*       CLOUDY    33  31  92 W12       29.93R WCI  24
RACINE*        CLOUDY    34  30  85 W10G18    29.94R WCI  26
BURLINGTON     CLOUDY    32  31  96 W5        29.94R WCI  28
WAUKESHA       CLOUDY    32  30  93 W7        29.92R WCI  26
WEST BEND      CLOUDY    32  32 100 W9        29.88S WCI  24
$$

INZ001>003-010>013-019-020-051000-
NORTHWEST INDIANA

CITY           SKY/WX    TMP DP  RH WIND       PRES   REMARKS
GARY*          CLOUDY    35  33  93 W10G16    30.01R WCI  27
MICHIGAN CITY* NOT AVBL
RENSSELAER*    NOT AVBL
VALPARAISO     CLOUDY    34  30  85 MISG      30.01R
$$

LMZ740>746-051000-
SOUTHERN LAKE MICHIGAN

STATION/POSITION TIME  SKY/WX   TEMP WIND        PRES    VSBY
                                AIR  DIR/SP/G
                 (UTC)          (F)  (DEG/KT/KT) (MB)    (MI)
HARRISON CRIB    0840            35  260/ 17/ 19   N/A
BURNHAM HARBOR   0900            35  250/  9/ 14   N/A
CALUMET HARBOR   0842            33  230/  9/ 14 1015.2R
BURNS HARBOR     0840            36  240/ 17/ 23 1016.3R
MICHIGAN CITY    NOT AVBL
$$

ABBREVIATIONS USED IN REMARKS
   TC - TEMPERATURE IN CELSIUS
  WCI - WIND CHILL INDEX
   HX - HEAT INDEX
  VSB - VISIBILITY
$$



USA.gov is the U.S. government's official web portal to all federal, state and local government web resources and services.